Regional Weather Roundup
Issued by NWS Cleveland, OH

Home | Current Version | Previous Version | Graphics & Text | Print | Product List | Glossary On
Versions: 1 2 3 4 5 6 7 8 9 10 11 12 13 14 15 16 17 18 19 20 21 22 23 24 25 26 27 28 29 30 31 32 33 34 35 36 37 38 39 40 41 42 43 44 45 46 47 48 49 50
000
ASUS41 KCLE 200302
RWRCLE
OHIO REGIONAL WEATHER ROUNDUP
NATIONAL WEATHER SERVICE CLEVELAND, OH
1100 PM EDT SAT AUG 19 2017

NOTE: "FAIR" INDICATES FEW OR NO CLOUDS BELOW 12,000 FEET WITH NO
SIGNIFICANT WEATHER AND/OR OBSTRUCTIONS TO VISIBILITY.

OHZ001>008-015>018-024>027-034-035-043-044-200400-
   NORTHWEST OHIO

CITY           SKY/WX    TMP DP  RH WIND       PRES   REMARKS
DEFIANCE       CLEAR     65  62  90 CALM      30.00R
FINDLAY        CLEAR     66  60  81 CALM      30.00R
TOLEDO EXPRESS CLEAR     64  64 100 CALM      29.99R
TOLEDO EXEC    CLEAR     69  61  75 CALM      30.00R
LIMA           CLEAR     64  61  90 S3        30.02R
$$

OHZ009>014-019>023-028>033-038-089-200400-
   NORTHEAST OHIO

CITY           SKY/WX    TMP DP  RH WIND       PRES   REMARKS
CLE-HOPKINS    CLEAR     69  62  78 SE3       30.02R
CLE-LAKEFRONT  CLEAR     72  59  63 CALM      29.99R
CUY CO. ARPT   CLEAR     64  61  88 CALM      30.01R
LORAIN-ELYRIA    N/A    N/A N/A N/A MISG      30.01R
ASHTABULA      CLEAR     61  60  97 CALM      30.02R
AKRON-CANTON   CLEAR     68  58  70 CALM      30.03R
WOOSTER        CLEAR     61  60  97 CALM      30.03R
MANSFIELD      CLEAR     64  61  90 CALM      30.03R
YOUNGSTOWN     CLEAR     62  60  93 CALM      30.02R
$$

OHZ042-051>053-060>062-070>072-077>081-200400-
  SOUTHWEST OHIO

CITY           SKY/WX    TMP DP  RH WIND       PRES   REMARKS
CINC-COVINGTON PTCLDY    74  69  85 CALM      30.00R
CINC-LUNKEN    CLEAR     71  69  93 CALM      30.00R
HAMILTON       CLEAR     70  69  97 CALM      30.01R
DAYTON         CLEAR     71  60  68 CALM      30.03R
WRIGHT-PAT AFB CLEAR     70  65  83 CALM      30.01R
DAYTON GENERAL CLEAR     73  64  73 NE6       30.01R
WILMINGTON     CLEAR     69  66  90 NE3       30.02R
$$

OHZ036-037-039>041-045>050-054>059-063>069-073>076-082>088-200400-
  CENTRAL AND SOUTHEAST OHIO

CITY           SKY/WX    TMP DP  RH WIND       PRES   REMARKS
COLUMBUS       CLEAR     71  66  84 E5        30.01R
OSU AIRPORT    CLEAR     67  62  84 CALM      30.01R
BOLTON FIELD   NOT AVBL
RICKENBACK AFB CLEAR     69  65  90 CALM      30.01R
NEWARK         FOG       64  63  96 CALM      30.02R VSB 1/2
MARION         CLEAR     64  59  83 CALM      30.02R
LANCASTER      CLEAR     66  66 100 CALM      30.02R
ZANESVILLE     FOG       64  63  96 CALM      30.02R VSB 3/4
NEW PHILLY     NOT AVBL
$$



USA.gov is the U.S. government's official web portal to all federal, state and local government web resources and services.